Temp
-7 -7 -7 -7 -7 -7 -7 -7 -8 -7 -7 -7 -7 -7 -7 -7 -8 -8 -8 -8 -8 -8 -8 -8 -8 -9 -9 -10 -10 -11 -11 -11 -11 -11 -11 -12 -12 -11 -12 -12 -12 -12 -12
-7 -7 -7 -8 -8 -8 -8 -8 -8 -8 -8 -7 -7 -7 -8 -8 -8 -8 -8 -8 -9 -9 -9 -9 -10 -10 -10 -11 -11 -11 -12 -12 -12 -12 -12 -12 -12 -12 -12 -12 -12 -12 -12
-8 -8 -8 -8 -8 -8 -8 -8 -8 -8 -8 -8 -8 -8 -8 -8 -9 -8 -8 -8 -9 -9 -10 -10 -11 -11 -11 -12 -12 -12 -13 -13 -13 -12 -12 -12 -13 -13 -13 -13 -13 -13 -13
-7 -8 -8 -8 -8 -9 -9 -9 -8 -8 -8 -8 -8 -8 -9 -8 -8 -8 -8 -9 -9 -10 -11 -12 -12 -13 -13 -13 -13 -13 -13 -13 -13 -13 -13 -13 -13 -13 -14 -14 -14 -14 -14
-8 -8 -9 -8 -9 -9 -9 -8 -8 -8 -8 -8 -8 -8 -9 -8 -8 -8 -9 -9 -11 -11 -12 -13 -13 -13 -14 -14 -14 -14 -14 -14 -14 -14 -14 -14 -14 -14 -14 -14 -14 -14 -15
-8 -9 -9 -8 -9 -9 -9 -8 -8 -8 -8 -9 -8 -8 -9 -9 -9 -9 -10 -11 -12 -12 -13 -13 -14 -14 -15 -15 -15 -15 -15 -15 -15 -15 -15 -15 -15 -14 -14 -14 -14 -14 -14
-9 -9 -9 -8 -9 -9 -9 -8 -8 -8 -9 -8 -8 -8 -9 -9 -9 -10 -10 -11 -12 -13 -14 -14 -15 -15 -15 -15 -15 -15 -15 -15 -15 -15 -15 -15 -15 -15 -14 -14 -14 -14 -14
-9 -9 -9 -8 -9 -9 -9 -9 -8 -8 -8 -8 -8 -8 -8 -9 -9 -11 -11 -11 -13 -14 -14 -15 -16 -16 -17 -17 -16 -16 -16 -16 -15 -15 -15 -15 -15 -15 -14 -14 -14 -14 -14
-9 -9 -9 -9 -9 -9 -9 -9 -9 -8 -9 -8 -8 -8 -9 -9 -10 -11 -11 -12 -14 -14 -15 -16 -16 -17 -18 -19 -18 -17 -16 -16 -16 -15 -15 -15 -15 -14 -14 -14 -14 -14 -14
-9 -9 -9 -9 -9 -9 -9 -10 -9 -9 -9 -8 -8 -9 -9 -9 -10 -11 -11 -13 -14 -15 -15 -16 -16 -17 -19 -20 -19 -17 -16 -16 -16 -15 -15 -15 -15 -14 -15 -15 -15 -15 -14
-9 -9 -9 -9 -9 -10 -9 -10 -10 -9 -9 -9 -9 -9 -9 -10 -11 -11 -12 -13 -14 -14 -15 -15 -16 -17 -18 -18 -18 -17 -16 -16 -16 -15 -15 -15 -15 -15 -15 -15 -15 -14 -13
-8 -8 -9 -10 -10 -10 -10 -10 -10 -9 -9 -9 -9 -9 -10 -10 -11 -12 -13 -13 -14 -14 -15 -14 -15 -16 -17 -16 -16 -16 -16 -16 -15 -15 -15 -15 -15 -14 -14 -14 -14 -14 -13
-9 -9 -9 -10 -10 -10 -10 -11 -10 -10 -10 -10 -10 -10 -11 -11 -12 -12 -13 -13 -14 -14 -14 -14 -14 -15 -15 -15 -16 -16 -16 -15 -15 -15 -15 -15 -16 -14 -14 -14 -14 -14 -13
-9 -9 -10 -9 -10 -10 -10 -11 -11 -10 -10 -10 -10 -11 -11 -12 -12 -12 -13 -14 -14 -13 -13 -14 -14 -15 -15 -15 -15 -15 -15 -15 -15 -16 -16 -14 -14 -14 -14 -13 -14 -13 -12
-9 -9 -9 -10 -10 -10 -10 -10 -10 -10 -10 -10 -11 -11 -12 -12 -12 -12 -13 -14 -14 -14 -14 -13 -13 -14 -14 -15 -15 -15 -15 -17 -16 -15 -15 -14 -14 -14 -14 -13 -13 -13 -13
-9 -10 -10 -10 -11 -11 -11 -10 -11 -10 -11 -11 -11 -11 -12 -12 -13 -13 -14 -14 -14 -14 -14 -14 -14 -14 -14 -14 -15 -16 -16 -16 -15 -15 -15 -14 -14 -14 -14 -13 -13 -13 -13
-10 -10 -10 -10 -10 -10 -10 -10 -11 -11 -11 -11 -11 -12 -12 -13 -13 -13 -14 -15 -15 -15 -15 -15 -16 -16 -16 -16 -16 -16 -16 -16 -15 -15 -15 -15 -14 -14 -14 -13 -13 -13 -13
-10 -10 -10 -10 -10 -11 -10 -11 -11 -11 -11 -12 -12 -12 -13 -13 -13 -13 -14 -15 -15 -15 -15 -15 -15 -16 -16 -15 -16 -16 -16 -16 -16 -16 -15 -15 -15 -15 -14 -14 -13 -13 -13
-10 -10 -11 -11 -10 -10 -11 -11 -11 -11 -12 -12 -12 -13 -13 -13 -13 -13 -14 -15 -15 -15 -15 -15 -15 -16 -16 -16 -16 -16 -16 -16 -16 -16 -16 -15 -15 -15 -15 -15 -14 -14 -13
-10 -10 -10 -11 -11 -11 -12 -12 -11 -12 -12 -12 -13 -13 -13 -13 -13 -14 -15 -15 -15 -15 -15 -15 -15 -15 -16 -16 -16 -16 -16 -16 -16 -16 -16 -16 -15 -15 -15 -15 -15 -14 -14
-10 -10 -11 -11 -10 -11 -12 -12 -12 -13 -13 -13 -13 -14 -14 -14 -14 -14 -15 -15 -16 -16 -16 -16 -16 -16 -16 -16 -16 -16 -16 -16 -16 -16 -16 -16 -16 -16 -16 -16 -16 -15 -14
-11 -11 -11 -11 -11 -12 -12 -12 -13 -13 -13 -14 -14 -14 -14 -14 -14 -15 -15 -16 -16 -16 -16 -16 -16 -16 -16 -16 -16 -16 -16 -16 -16 -16 -16 -16 -16 -16 -16 -16 -16 -16 -15
-11 -11 -11 -11 -11 -12 -12 -13 -14 -14 -14 -14 -14 -14 -15 -15 -15 -15 -15 -16 -16 -17 -17 -17 -17 -17 -17 -17 -17 -17 -17 -17 -17 -17 -17 -17 -17 -17 -17 -17 -16 -16 -16
-11 -11 -10 -11 -11 -11 -12 -14 -15 -15 -14 -14 -14 -15 -15 -15 -15 -15 -16 -16 -16 -17 -17 -17 -17 -17 -17 -17 -17 -17 -17 -17 -17 -17 -17 -17 -17 -17 -17 -17 -17 -17 -16
-11 -11 -11 -11 -11 -12 -14 -14 -14 -14 -15 -15 -15 -15 -15 -16 -16 -16 -16 -16 -17 -17 -17 -18 -18 -18 -18 -18 -18 -18 -18 -18 -18 -18 -18 -18 -18 -18 -18 -17 -17 -17 -17
-10 -11 -12 -11 -13 -13 -14 -14 -14 -14 -15 -15 -15 -15 -16 -16 -16 -16 -17 -17 -17 -17 -17 -18 -18 -18 -18 -18 -18 -18 -18 -18 -18 -18 -18 -18 -18 -18 -18 -18 -18 -18 -18
Height
5942 5940 5937 5935 5934 5931 5927 5922 5917 5913 5907 5902 5897 5893 5888 5883 5877 5872 5866 5860 5854 5847 5841 5833 5826 5817 5809 5801 5792 5785 5778 5771 5766 5767 5758 5754 5751 5746 5744 5743 5743 5742 5742
5939 5937 5936 5934 5932 5928 5924 5919 5914 5908 5902 5897 5891 5886 5881 5876 5871 5864 5857 5850 5843 5836 5828 5820 5812 5803 5795 5786 5779 5772 5764 5758 5753 5751 5746 5742 5737 5733 5731 5726 5724 5725 5726
5936 5935 5934 5931 5927 5923 5918 5913 5908 5901 5896 5891 5886 5880 5874 5868 5863 5855 5848 5840 5831 5822 5813 5804 5796 5788 5781 5772 5763 5757 5751 5746 5741 5738 5734 5728 5724 5720 5717 5712 5708 5706 5705
5934 5931 5930 5927 5923 5919 5914 5908 5901 5895 5890 5884 5878 5872 5867 5860 5851 5844 5836 5827 5818 5808 5798 5789 5780 5772 5764 5758 5750 5743 5739 5734 5729 5725 5721 5717 5713 5707 5702 5698 5695 5691 5688
5929 5927 5924 5920 5917 5913 5908 5902 5896 5888 5883 5877 5871 5864 5857 5850 5841 5834 5825 5816 5804 5795 5785 5775 5766 5757 5749 5743 5736 5730 5725 5720 5715 5711 5708 5705 5702 5696 5691 5686 5680 5678 5674
5924 5921 5919 5915 5912 5908 5903 5896 5889 5883 5877 5870 5863 5855 5849 5842 5832 5824 5814 5802 5791 5780 5770 5760 5750 5741 5733 5727 5721 5716 5711 5708 5704 5701 5698 5694 5690 5684 5680 5673 5669 5666 5664
5918 5916 5914 5910 5907 5903 5897 5890 5884 5877 5870 5863 5856 5848 5841 5833 5823 5813 5801 5791 5780 5768 5756 5746 5735 5724 5715 5707 5704 5701 5697 5694 5691 5690 5687 5683 5679 5674 5669 5665 5661 5658 5656
5913 5910 5908 5905 5901 5895 5890 5884 5877 5871 5864 5856 5848 5840 5834 5824 5814 5803 5791 5780 5768 5755 5743 5731 5718 5704 5692 5685 5685 5684 5682 5681 5681 5678 5676 5673 5668 5664 5660 5658 5654 5650 5645
5908 5905 5902 5899 5894 5889 5883 5878 5870 5862 5857 5849 5841 5834 5826 5816 5805 5796 5784 5772 5760 5746 5732 5719 5703 5684 5667 5660 5663 5667 5669 5671 5671 5670 5668 5665 5661 5657 5653 5649 5645 5639 5635
5901 5898 5895 5890 5885 5877 5871 5868 5862 5854 5849 5841 5833 5825 5817 5808 5798 5789 5777 5764 5753 5739 5725 5711 5695 5675 5658 5651 5654 5658 5662 5664 5664 5664 5662 5659 5655 5651 5648 5642 5636 5629 5624
5894 5891 5887 5882 5879 5874 5866 5860 5854 5846 5840 5833 5825 5818 5809 5799 5790 5782 5771 5759 5748 5734 5720 5708 5692 5676 5664 5658 5657 5658 5659 5660 5660 5658 5657 5653 5651 5647 5642 5636 5629 5621 5615
5886 5884 5880 5875 5870 5865 5858 5851 5846 5837 5832 5825 5816 5808 5801 5795 5785 5775 5765 5754 5743 5729 5717 5707 5695 5684 5674 5667 5662 5660 5659 5659 5658 5656 5652 5650 5648 5644 5638 5630 5622 5615 5610
5879 5877 5872 5867 5861 5856 5850 5843 5837 5831 5825 5817 5809 5802 5794 5786 5779 5770 5760 5749 5739 5725 5715 5706 5697 5688 5680 5674 5669 5665 5661 5658 5655 5652 5650 5649 5646 5642 5636 5628 5619 5613 5607
5872 5868 5864 5859 5854 5847 5841 5833 5826 5822 5817 5811 5804 5796 5789 5781 5773 5764 5756 5747 5736 5725 5715 5707 5698 5690 5683 5678 5673 5668 5663 5658 5654 5653 5651 5648 5644 5640 5634 5627 5620 5610 5606
5863 5860 5856 5851 5845 5838 5831 5826 5820 5814 5809 5804 5798 5790 5782 5776 5769 5761 5753 5744 5734 5725 5714 5707 5702 5694 5687 5681 5675 5669 5665 5661 5658 5655 5652 5648 5644 5638 5633 5627 5620 5613 5605
5854 5851 5847 5841 5835 5830 5824 5817 5813 5809 5804 5798 5791 5785 5778 5771 5765 5758 5750 5743 5734 5725 5716 5706 5702 5696 5689 5683 5677 5672 5668 5664 5661 5657 5653 5648 5644 5639 5633 5627 5621 5614 5607
5845 5840 5836 5830 5825 5821 5815 5811 5806 5801 5796 5790 5784 5778 5772 5767 5761 5754 5747 5740 5732 5725 5719 5709 5703 5698 5691 5684 5679 5675 5671 5667 5662 5659 5654 5649 5644 5639 5634 5628 5622 5616 5610
5833 5829 5825 5820 5816 5811 5806 5802 5799 5794 5789 5783 5777 5771 5765 5760 5755 5749 5743 5737 5732 5726 5719 5712 5705 5701 5695 5689 5683 5678 5673 5668 5664 5660 5655 5650 5645 5640 5634 5628 5623 5617 5612
5823 5820 5815 5810 5805 5801 5796 5793 5790 5785 5780 5777 5772 5765 5760 5755 5750 5746 5740 5735 5730 5725 5718 5712 5707 5703 5698 5692 5686 5681 5676 5671 5666 5661 5656 5651 5646 5640 5634 5629 5624 5619 5613
5813 5809 5805 5801 5797 5791 5787 5784 5780 5777 5773 5768 5762 5758 5754 5749 5744 5740 5735 5731 5727 5722 5717 5711 5706 5702 5698 5693 5688 5683 5678 5672 5667 5662 5657 5651 5646 5641 5636 5630 5625 5620 5615
5802 5797 5793 5789 5787 5782 5777 5774 5771 5767 5764 5760 5755 5751 5747 5743 5738 5734 5730 5725 5722 5718 5713 5708 5702 5699 5696 5692 5687 5682 5677 5672 5667 5661 5656 5651 5646 5641 5636 5631 5625 5620 5616
5793 5789 5783 5779 5777 5772 5767 5764 5761 5757 5754 5751 5748 5744 5740 5736 5732 5728 5724 5719 5716 5713 5708 5704 5699 5695 5691 5688 5684 5680 5675 5670 5664 5659 5654 5649 5644 5640 5635 5630 5626 5621 5616
5780 5776 5774 5769 5765 5761 5756 5753 5750 5749 5746 5743 5740 5737 5734 5730 5725 5721 5717 5713 5709 5706 5702 5698 5694 5690 5687 5683 5680 5675 5671 5666 5661 5656 5651 5647 5643 5638 5633 5629 5624 5620 5616
5767 5764 5760 5756 5753 5749 5746 5743 5742 5739 5737 5736 5732 5730 5727 5723 5719 5715 5711 5707 5704 5700 5696 5692 5688 5684 5681 5677 5674 5670 5666 5661 5657 5652 5648 5644 5639 5635 5631 5627 5623 5618 5614
5753 5750 5745 5743 5741 5736 5734 5735 5734 5731 5729 5726 5724 5721 5719 5715 5712 5708 5704 5700 5697 5693 5689 5685 5682 5678 5674 5671 5668 5665 5661 5656 5652 5648 5644 5639 5635 5631 5626 5622 5619 5615 5611
5741 5736 5733 5730 5727 5726 5726 5726 5724 5721 5720 5718 5716 5714 5711 5707 5704 5701 5698 5694 5690 5685 5682 5678 5675 5672 5668 5664 5661 5658 5655 5651 5647 5643 5638 5634 5630 5626 5622 5618 5614 5610 5607
Wind_Speed
13 14 18 21 25 29 30 29 28 29 30 30 30 30 30 31 33 36 39 41 43 45 48 52 56 60 63 63 62 61 62 63 64 62 61 56 53 55 54 52 51 50 49
13 15 18 21 25 32 28 28 29 29 28 29 30 30 32 34 36 39 43 45 48 50 53 54 56 59 62 64 64 64 62 59 58 56 53 53 54 55 56 59 60 58 55
15 17 20 20 25 31 29 34 35 32 30 30 31 33 36 39 42 46 48 51 53 54 57 58 58 58 58 59 57 55 54 53 54 54 53 55 56 59 59 59 58 56 54
18 20 19 23 25 29 35 37 38 33 31 32 34 38 40 42 46 51 54 57 58 58 58 57 55 54 53 53 54 54 54 53 53 54 55 56 55 55 53 52 52 50 47
20 21 22 26 29 33 37 40 39 32 32 34 38 42 43 46 51 55 57 59 57 57 57 57 56 57 56 55 55 54 53 52 52 51 49 46 45 47 46 46 46 48 47
23 24 26 29 32 35 38 41 38 34 36 38 42 47 46 50 54 56 56 55 56 59 61 60 59 57 54 52 48 46 43 42 42 42 40 41 43 42 37 39 32 30 28
26 28 30 36 35 37 38 43 39 37 39 41 46 48 49 54 55 55 55 57 60 62 62 61 62 62 60 56 50 46 46 45 42 40 39 40 40 38 32 27 27 28 28
29 32 34 35 41 43 40 43 45 42 42 44 47 49 51 54 56 53 57 60 59 58 61 62 60 61 61 57 51 46 45 43 39 39 38 38 38 39 25 28 32 31 32
33 37 39 43 47 47 49 44 52 45 45 47 51 51 52 55 55 54 57 56 56 57 60 59 63 63 55 46 39 39 39 36 33 33 34 34 34 28 27 29 29 33 33
38 41 42 47 53 52 40 45 48 43 47 48 52 51 52 54 54 55 55 52 52 56 54 54 63 61 42 29 23 22 23 25 26 29 28 28 33 21 24 28 27 26 30
41 43 48 52 55 48 45 50 48 42 46 49 53 51 53 52 51 54 51 50 52 52 48 53 58 54 40 29 21 16 16 19 23 23 23 27 15 22 26 30 31 28 25
43 46 50 53 43 48 46 41 52 40 46 49 51 53 53 49 47 51 49 50 50 50 48 52 52 48 37 28 20 16 15 16 18 19 17 11 19 24 28 34 30 32 29
44 46 47 48 48 50 48 53 45 43 48 50 50 53 47 44 46 48 46 48 47 49 46 47 48 42 33 30 20 17 16 15 17 13 13 18 22 25 26 36 35 31 24
42 43 38 45 45 44 43 51 35 43 48 51 51 49 43 41 44 46 43 45 44 47 40 42 45 34 31 22 20 25 26 21 14 15 16 17 21 26 27 31 36 29 23
37 37 39 39 40 43 44 38 37 43 48 49 50 45 40 38 41 43 41 42 44 45 39 35 38 36 33 27 25 25 23 17 16 15 18 20 23 26 28 29 32 37 29
34 38 41 38 40 42 42 41 42 43 48 47 47 43 38 36 38 40 38 38 38 41 38 30 31 33 31 28 26 21 17 18 18 18 20 22 25 26 26 27 28 34 35
35 38 40 39 41 45 49 42 42 43 45 46 44 39 35 34 35 37 34 34 35 32 34 33 29 28 28 25 24 20 20 19 20 20 21 22 24 24 25 26 26 26 34
39 43 46 46 47 50 44 40 43 41 42 40 39 34 32 31 32 34 31 30 31 31 30 27 27 27 27 27 25 24 23 23 22 22 22 22 22 23 25 26 26 26 26
41 42 43 46 47 52 45 41 43 42 43 45 37 31 31 30 31 32 30 28 29 27 25 25 26 27 25 24 24 25 25 25 24 24 23 23 24 25 27 27 28 27 27
44 45 44 42 46 46 44 41 42 42 43 41 35 30 30 28 29 29 27 27 27 27 27 24 24 23 23 24 24 24 24 25 26 27 26 26 26 26 26 27 27 27 26
42 46 43 39 37 38 43 42 42 40 41 37 32 31 29 29 29 29 28 27 26 27 27 26 24 24 23 24 25 26 26 26 26 27 28 29 28 27 27 27 28 28 27
45 46 43 47 44 40 41 42 38 38 36 33 30 29 29 29 29 29 28 28 27 27 26 27 26 27 27 27 26 26 26 26 28 28 28 28 29 28 28 28 26 27 27
49 51 47 49 47 47 46 44 35 36 32 31 30 29 29 30 29 29 29 28 29 28 28 28 28 28 29 30 30 29 28 27 27 27 28 27 27 28 28 27 27 26 26
47 51 48 51 49 57 46 33 32 33 31 31 29 29 30 30 29 29 29 29 30 29 29 29 29 29 30 31 31 31 30 29 28 27 28 28 28 27 26 26 26 27 27
52 56 48 47 56 51 31 31 34 31 29 30 30 30 31 30 29 29 30 29 30 30 30 29 30 29 29 31 31 32 31 30 29 28 28 30 29 27 27 27 27 27 27
60 50 48 53 44 31 30 31 31 29 30 30 30 32 32 30 30 31 31 31 31 31 31 30 31 31 30 30 32 32 32 31 30 29 30 30 29 27 27 28 28 28 28
Wind_Direction
330 350 355 355 349 343 335 330 329 326 325 325 322 322 321 319 317 315 312 308 307 303 300 298 296 294 292 291 290 291 293 295 295 296 298 298 296 294 294 293 290 287 284
317 329 335 336 338 345 343 341 336 329 324 322 322 322 320 317 316 312 312 310 308 308 304 299 294 292 291 292 292 293 296 297 297 295 294 294 292 291 291 290 289 286 283
309 314 316 329 343 346 345 345 338 332 327 327 326 322 319 319 321 317 318 316 312 308 305 302 299 296 295 294 295 295 294 293 293 292 291 290 291 291 290 289 290 288 285
292 302 314 330 336 336 339 336 336 334 330 327 324 323 322 325 323 325 321 316 313 310 308 305 304 301 296 294 292 291 290 290 289 288 288 289 291 291 293 292 291 290 286
297 304 317 324 325 330 334 336 333 331 326 324 326 325 327 329 328 324 320 317 316 316 314 310 305 301 299 297 294 293 293 292 292 292 293 293 294 294 295 294 291 286 281
301 303 313 316 323 330 332 330 329 328 325 326 330 329 327 327 323 322 321 322 322 319 315 311 311 310 306 304 301 298 296 295 295 295 296 294 298 297 295 294 290 291 287
296 300 309 315 317 320 328 331 328 325 325 329 329 327 326 325 323 323 325 326 325 319 319 318 313 306 300 295 291 291 292 293 295 297 297 297 301 293 304 292 295 293 289
292 299 304 315 315 309 318 325 327 322 324 329 327 327 327 325 325 328 329 329 325 326 323 319 319 317 304 292 282 284 288 289 291 297 302 300 300 301 298 291 291 293 292
289 291 295 300 302 305 306 315 325 320 322 328 328 328 328 326 328 330 333 330 330 331 329 332 335 333 316 301 286 277 280 288 291 298 301 304 301 307 301 289 295 295 292
286 290 294 295 299 309 308 321 323 319 320 325 327 326 327 328 330 332 334 333 337 335 337 341 344 346 341 325 297 288 289 292 296 304 309 301 312 326 341 332 324 307 304
285 289 292 298 301 313 322 315 316 316 319 322 325 326 328 330 332 335 337 337 339 340 341 347 351 355 356 356 336 321 311 307 309 311 307 306 349 338 329 331 331 331 330
285 294 301 304 322 317 319 312 313 313 315 322 324 326 327 329 334 336 339 341 344 344 345 349 354 355 354 355 347 336 332 324 324 306 325 346 1 350 357 343 347 349 340
286 293 300 313 315 311 316 313 306 310 315 323 324 324 325 330 336 339 340 343 346 349 349 348 349 352 350 351 349 352 342 327 326 352 27 10 358 358 359 358 1 345 348
285 295 305 309 307 315 313 313 310 312 320 322 320 320 324 330 337 340 340 344 349 353 351 358 356 357 11 4 15 2 359 352 15 25 10 3 359 3 3 359 2 357 359
286 294 303 310 310 314 314 312 311 310 318 316 318 319 322 330 338 340 341 344 350 353 355 358 355 1 5 359 356 353 351 21 17 15 7 4 360 360 2 4 7 3 358
290 289 304 304 306 307 313 309 305 310 313 314 317 317 322 329 336 338 339 345 352 353 355 357 353 348 351 353 355 2 14 12 11 9 4 359 358 360 3 2 4 5 4
291 297 307 307 310 307 304 305 303 310 312 314 315 315 322 327 333 336 336 341 349 350 356 7 10 8 9 10 12 12 12 11 8 3 2 2 0 2 6 7 7 1 6
286 293 299 301 307 308 300 297 303 308 310 310 309 314 320 325 329 332 332 333 340 345 351 356 6 8 11 8 9 11 10 10 9 7 3 3 3 3 7 8 8 6 3
286 294 294 295 300 308 300 293 298 305 308 310 309 314 318 322 325 329 329 328 332 337 345 354 358 359 3 9 9 9 9 9 7 5 3 4 3 3 4 7 5 7 6
288 288 292 293 301 302 298 291 297 303 306 307 308 311 315 317 320 323 321 321 325 327 330 334 339 346 351 351 355 358 0 1 4 3 1 360 0 1 0 360 1 2 5
293 290 295 303 301 306 300 288 293 300 304 303 305 307 312 315 315 318 318 316 316 317 321 325 331 332 333 335 340 346 350 351 352 353 355 357 356 354 356 356 355 358 359
287 288 288 293 291 295 293 285 289 295 299 299 301 302 309 311 313 315 314 311 307 309 313 315 320 322 324 326 328 330 334 339 342 343 345 347 349 350 349 346 348 346 353
287 302 300 302 287 290 286 282 289 295 296 296 296 299 304 306 312 314 312 310 304 302 305 308 312 316 317 319 320 323 326 329 332 335 337 337 339 340 341 339 338 342 341
284 308 295 285 282 292 280 284 291 294 290 294 293 296 299 304 309 313 310 310 309 305 304 305 307 310 313 315 317 319 320 322 324 326 328 331 334 332 332 334 335 334 335
278 299 288 283 281 272 277 287 292 290 291 290 291 293 295 300 305 310 308 310 310 308 305 305 305 306 309 311 312 314 315 317 319 320 322 326 328 327 327 329 330 331 329
285 283 288 281 270 273 280 287 286 286 288 289 290 293 296 300 301 304 308 309 308 308 308 306 304 304 306 308 309 310 312 313 315 317 318 320 323 323 324 325 326 328 328